Weather History for Tyler, TX

Change the Weather History Date:

Thursday, January 27, 2011

  Actual Average Record
Temperature  
Mean Temperature 48 °F 47 °F  
Max Temperature 63 °F 57 °F 81 °F (1975)
Min Temperature 32 °F 37 °F 11 °F (1897)
Degree Days  
Heating Degree Days 17 18  
Month to date heating degree days 612 509  
Since 1 July heating degree days 1397 1410  
Cooling Degree Days 0 0  
Month to date cooling degree days 0 0  
Year to date cooling degree days 0 0  
Moisture  
Dew Point 28 °F    
Average Humidity 55    
Maximum Humidity 82    
Minimum Humidity 27    
Precipitation  
Precipitation 0.00 in 0.11 in 2.03 in (1992)
Month to date precipitation 4.04 2.67  
Year to date precipitation 4.04 2.67  
Snow  
Snow 0.00 in - - ()
Month to date snowfall 1.4  
Since 1 July snowfall 1.4  
Snow Depth 0.00 in    
Sea Level Pressure  
Sea Level Pressure 30.15 in    
Wind  
Wind Speed 5 mph (WSW)    
Max Wind Speed 16 mph    
Max Gust Speed 22 mph    
Visibility 10 miles    
Events      
T = Trace of Precipitation, MM = Missing Value Source: NWS Daily Summary

Daily Weather History Graph

Daily Weather History Graph

Search for Another Location

Airport:

Trip Planner

Search our weather history database for the weather conditions in past years. The results will help you decide how hot, cold, wet, or windy it might be!

Date:

Astronomy

Jan. 27, 2011 Rise Set
Actual Time 7:18 AM CST 5:50 PM CST
Civil Twilight 6:52 AM CST 6:16 PM CST
Nautical Twilight 6:23 AM CST 6:45 PM CST
Astronomical Twilight 5:54 AM CST 7:14 PM CST
Moon 1:45 AM CST (1/27) 12:14 PM CST (1/27)
Length of Visible Light 11h 23m
Length of Day
10h 31m
Last Quarter, 37% of the Moon is Illuminated
Jan 27
Last Quarter
Feb 2
New
Feb 11
First Quarter
Feb 18
Full
Feb 24
Last Quarter

Hourly Weather History & Observations

Time (CST) Temp. Windchill Dew Point Humidity Pressure Visibility Wind Dir Wind Speed Gust Speed Precip Events Conditions
12:53 AM 45.0 °F 42.6 °F 26.1 °F 48% 30.19 in 10.0 mi WSW 4.6 mph - N/A   Clear
1:53 AM 44.1 °F 42.5 °F 25.0 °F 47% 30.19 in 10.0 mi West 3.5 mph - N/A   Clear
2:53 AM 41.0 °F 38.0 °F 27.0 °F 57% 30.19 in 10.0 mi West 4.6 mph - N/A   Clear
3:53 AM 35.1 °F - 28.0 °F 76% 30.19 in 10.0 mi Calm Calm - N/A   Clear
4:53 AM 36.0 °F - 27.0 °F 70% 30.19 in 10.0 mi Calm Calm - N/A   Clear
5:53 AM 34.0 °F - 27.0 °F 75% 30.20 in 10.0 mi Calm Calm - N/A   Clear
6:53 AM 34.0 °F - 27.0 °F 75% 30.21 in 10.0 mi Calm Calm - N/A   Clear
7:53 AM 34.0 °F - 28.0 °F 79% 30.22 in 10.0 mi Calm Calm - N/A   Clear
8:53 AM 42.1 °F - 32.0 °F 67% 30.22 in 10.0 mi Calm Calm - N/A   Clear
9:53 AM 46.9 °F - 30.0 °F 52% 30.24 in 10.0 mi West 4.6 mph - N/A   Clear
10:53 AM 52.0 °F - 30.0 °F 43% 30.23 in 10.0 mi SW 4.6 mph - N/A   Clear
11:53 AM 55.9 °F - 28.9 °F 36% 30.21 in 10.0 mi West 9.2 mph - N/A   Clear
12:53 PM 59.0 °F - 28.9 °F 32% 30.17 in 10.0 mi West 9.2 mph - N/A   Clear
1:53 PM 61.0 °F - 28.9 °F 30% 30.13 in 10.0 mi NW 12.7 mph 18.4 mph N/A   Clear
2:53 PM 61.0 °F - 28.9 °F 30% 30.11 in 10.0 mi WNW 11.5 mph - N/A   Clear
3:53 PM 62.1 °F - 28.9 °F 29% 30.10 in 10.0 mi SW 9.2 mph - N/A   Clear
4:53 PM 62.1 °F - 28.9 °F 29% 30.08 in 10.0 mi WSW 6.9 mph - N/A   Clear
5:53 PM 57.9 °F - 28.0 °F 32% 30.08 in 10.0 mi SW 4.6 mph - N/A   Clear
6:53 PM 55.0 °F - 26.1 °F 33% 30.09 in 10.0 mi Calm Calm - N/A   Clear
7:53 PM 54.0 °F - 25.0 °F 33% 30.10 in 10.0 mi WSW 4.6 mph - N/A   Clear
8:53 PM 50.0 °F - 28.0 °F 43% 30.09 in 10.0 mi SSW 5.8 mph - N/A   Clear
9:53 PM 48.9 °F - 28.9 °F 46% 30.09 in 10.0 mi SSW 6.9 mph - N/A   Clear
10:53 PM 48.2 °F - 28.4 °F 46% 30.09 in 10.0 mi SSW 8.1 mph - N/A   Clear
11:53 PM 46.0 °F 41.9 °F 33.1 °F 61% 30.08 in 10.0 mi SSW 8.1 mph - N/A   Clear